Welcome to the New NWS' Forecast!
Most changes are behind the scenes, but click here for differences you might notice.
Latest weather observations around

Fort Smith, Fort Smith Regional Airport (KFSM)

Using English Units (Switch to International System of Units)
Date/ Time (CST) Wind (mph) Vis. (mi) Weather Sky Cond. Temp (°F) Rel. Humidity Wind Chill (°F) Heat Index (°F) Pressure Precip. (in)
Air Dwpt 6 hour Altimeter (inHg) Sea level (inHg) 1 hr 3 hr 6 hr
Max Min
Dec 14 01:53 SW 6 10 Clear CLR 39 28     64% 35   29.93 29.93      
Dec 14 00:53 Calm 10 Clear CLR 38 27     64%     29.92 29.92      
Dec 13 23:53 SW 7 10 Clear CLR 37 28     70% 32   29.92 29.92      
Notice The following observation data may not be complete
Dec 13 22:53 SSW 6 10 Clear CLR   27      %     29.91 29.91      
Dec 13 21:53 WSW 6 10 Clear CLR 45 28     51% 42   29.89 29.9      
Dec 13 20:53 WSW 5 10 Clear CLR 40 29     65% 37   29.89 29.89      
Dec 13 19:53 WSW 6 10 Clear CLR 43 28     55% 39   29.88 29.88      
Dec 13 18:53 SW 6 10 Clear CLR 48 28     46% 45   29.87 29.88      
Dec 13 17:53 W 8 10 Clear CLR 49 26     41% 45   29.86 29.86      
Dec 13 16:53 W 7 10 Clear CLR 56 26     31%     29.84 29.84      
Dec 13 15:53 W 11 10 Clear CLR 61 25     25%     29.84 29.85      
Dec 13 14:53 W 15 10 Clear CLR 63 24     23%     29.84 29.84      
Dec 13 13:53 W 16 10 Clear CLR 63 24     23%     29.83 29.83      
Dec 13 12:53 W 15 10 Clear CLR 61 24     24%     29.86 29.86      
Dec 13 11:53 W 13 10 Clear CLR 56 25     30%     29.9 29.9      
Dec 13 10:53 Calm 10 Clear CLR 48 25     40%     29.93 29.94      
Dec 13 09:53 NE 6 10 Clear CLR 41 25     53% 37   29.93 29.93      
Dec 13 08:53 NE 5 10 Clear CLR 35 23     61% 31   29.95 29.96      
Dec 13 07:53 NE 3 10 Clear CLR 30 22     71% 27   29.97 29.98      
Dec 13 05:53 NE 5 10 Clear CLR 28 22     78% 23   29.99 30      
Dec 13 04:53 ENE 5 10 Clear CLR 29 22     75% 24   30.02 30.02      
Dec 13 03:53 ENE 5 10 Clear CLR 30 21     69% 25   30.05 30.06      
Dec 13 02:53 ENE 5 10 Clear CLR 30 21     69% 25   30.08 30.09      
Dec 13 01:53 ENE 5 10 Clear CLR 30 20     66% 25   30.09 30.1      
Dec 13 00:53 Calm 10 Clear CLR 31 19     61%     30.11 30.11      
Dec 12 23:53 Calm 10 Clear CLR 31 19     61%     30.13 30.14      
Dec 12 22:53 Calm 10 Clear CLR 31 21     66%     30.16 30.17      
Dec 12 21:53 W 3 10 Clear CLR 33 19     56% 30   30.17 30.18      
Dec 12 20:53 SSW 3 10 Clear CLR 38 15     39% 36   30.19 30.19      
Dec 12 19:53 WSW 5 10 Clear CLR 37 15     40% 33   30.2 30.21      
Dec 12 18:53 NW 7 10 Clear CLR 42 12     29% 38   30.22 30.22      
Dec 12 17:53 W 10 10 Clear CLR 43 12     28% 37   30.22 30.22      
Dec 12 16:53 WNW 9 10 Clear CLR 47 13     25% 43   30.23 30.24      
Dec 12 15:53 WNW 10 10 Clear CLR 50 10     20% 46   30.25 30.25      
Dec 12 14:53 WNW 10 10 Clear CLR 51 14     22%     30.25 30.25      
Dec 12 13:53 W 14 10 Clear CLR 50 14     23% 45   30.28 30.28      
Dec 12 12:53 W 14 10 Clear CLR 49 14     24% 44   30.31 30.31      
Dec 12 11:53 WNW 10 10 Clear CLR 47 14     26% 42   30.35 30.35      
Dec 12 10:53 NW 10 10 Clear CLR 44 16     32% 39   30.36 30.36      
Dec 12 09:53 NW 13 10 Clear CLR 41 20     43% 34   30.38 30.38      
Dec 12 08:53 NW 8 10 Clear CLR 39 21     48% 33   30.36 30.36      
Dec 12 07:53 NW 3 10 Clear CLR 37 22     54% 35   30.34 30.34      
Dec 12 06:53 NNW 9 10 Clear CLR 36 21     54% 29   30.34 30.34      
Dec 12 05:53 NW 10 10 Clear CLR 38 21     50% 31   30.33 30.33      
Dec 12 04:53 NNW 9 10 Clear CLR 40 23     50% 34   30.31 30.31      
Dec 12 03:53 NW 14 10 Clear CLR 43 22     43% 36   30.29 30.28      
Dec 12 02:53 NNW 17 10 Clear CLR 46 25     43% 39   30.27 30.27      
Dec 12 01:53 NNW 17 10 Clear CLR 47 31     53% 40   30.25 30.24      
Dec 12 00:53 N 14 10 Clear CLR 50 30     46% 45   30.22 30.21      
Dec 11 23:53 NNW 23 10 Clear and Windy CLR 52 28     39%     30.19 30.19      
Dec 11 22:53 NNW 17 10 Clear CLR 54 27     35%     30.17 30.16      
Dec 11 21:53 NNW 14 10 Clear CLR 56 24     29%     30.14 30.14      
Dec 11 20:53 NNW 11 10 Clear CLR 56 19     23%     30.12 30.12      
Dec 11 19:53 NNW 9 10 Clear CLR 58 17     20%     30.09 30.09      
Dec 11 18:53 WNW 10 10 Clear CLR 59 18     20%     30.06 30.06      
Dec 11 17:53 NW 10 10 Clear CLR 64 16     15%     30.03 30.03      
Dec 11 16:53 NW 10 10 Clear CLR 68 14     12%     30 30      
Dec 11 15:53 WNW 17 10 Clear CLR 73 13     10%   71 29.98 29.97      
Dec 11 14:53 W 22 10 Clear and Windy CLR 74 13     10%   71 29.98 29.97      
Dec 11 13:53 W 16 10 Clear CLR 73 16     11%   71 30 29.99      
Dec 11 12:53 W 13 10 Clear CLR 69 20     15%     30.04 30.03      
Dec 11 11:53 W 15 10 Clear CLR 64 22     20%     30.08 30.08      
Dec 11 10:53 W 9 10 Clear CLR 57 23     27%     30.13 30.14      
Dec 11 09:53 Calm 10 Clear CLR 49 31     50%     30.16 30.16      
Dec 11 08:53 Calm 10 Clear CLR 39 31     72%     30.17 30.17      
Dec 11 07:53 NE 3 10 Clear CLR 32 26     78% 29   30.17 30.18      
Dec 11 06:53 Calm 10 Clear CLR 31 26     82%     30.19 30.19      
Dec 11 05:53 Calm 10 Clear CLR 30 26     85%     30.19 30.19      
Dec 11 04:53 Calm 10 Clear CLR 32 25     75%     30.19 30.19      
Dec 11 03:53 Calm 10 Clear CLR 33 26     75%     30.19 30.19      
Dec 11 02:53 Calm 10 Clear CLR 35 26     69%     30.21 30.21      
Dec 11 01:53 Calm 10 Clear CLR 37 26     64%     30.21 30.22      
Jun 11 22:53 ENE 6 10 Clear CLR 74 63     69%   74 29.94 29.93      
Jun 11 20:53 Calm 10 Clear CLR 82 61     49%   83 29.91 29.89      
Jun 11 14:53 S 9 10 Partly Cloudy SCT060 88 61     40%   88 29.96 29.94      
Jun 11 08:53 E 6 10 Clear CLR 78 65     64%   79 29.97 29.95      
Jun 10 15:53 SSE 11 10 Cloudy OVC055 85 63     48%   86 29.89 29.87      
Jun 09 01:53 NE 5 10 Clear CLR 64 60     87%     29.92 29.91      
Jun 08 11:53 S 5 10 Clear CLR 79 51     38%   78 30.04 30.02      
Jun 07 08:53 ENE 7 10 Partly Cloudy SCT055 72 55     55%   71 30.02 30      
Jun 06 03:22 Calm 3 Fog/Mist CLR 69 67     93%     29.84